• Join FlightAware (Why Join?)
  • Login
  • US Flag 
09:49PM EDT


 

Airport Tracker/Info


-or-


 

Live Flight TrackerFlight Track Log ✈ SWA1096 ✈ 22-Apr-2013 ✈ KLAS - KSLC

Flight Track Log - Related Links

Times and Time Zones

All times are in EDT time to prevent confusion due to time zone crossing. See the SWA1096 flight status page for this flight to view local times or setup timezone preferences in your user account.

Time Position Orientation Groundspeed Altitude Reporting Facility
EDT Latitude Longitude Course Direction KTS MPH feet Rate Location/Type
09:27AM 36.0761 -115.1683 269° West 180 207 3,000  Level Los Angeles Center
09:28AM 36.0750 -115.2431 269° West 229 264 5,200 2,580 Climbing Los Angeles Center
09:28AM 36.0964 -115.2861 302° West 237 273 7,500 2,700 Climbing Los Angeles Center
09:29AM 36.1664 -115.2681 12° North 288 331 10,000 2,340 Climbing Los Angeles Center
09:30AM 36.1969 -115.1603 71° East 334 384 12,300 2,640 Climbing Los Angeles Center
09:31AM 36.1978 -115.0331 89° East 366 421 15,400 2,940 Climbing Los Angeles Center
09:32AM 36.1992 -114.8986 89° East 384 442 18,300 2,700 Climbing Los Angeles Center
09:33AM 36.2250 -114.7628 77° East 419 482 21,000 2,340 Climbing Los Angeles Center
09:34AM 36.3317 -114.6569 39° Northeast 414 476 23,100 1,860 Climbing Los Angeles Center
09:36AM 36.4036 -114.5872 38° Northeast 413 475 24,800 1,920 Climbing Los Angeles Center
09:37AM 36.5161 -114.4800 37° Northeast 422 486 27,100 2,100 Climbing Los Angeles Center
09:38AM 36.6178 -114.3947 34° Northeast 434 499 29,200 2,220 Climbing Los Angeles Center
09:39AM 36.7214 -114.3169 31° Northeast 436 502 31,700 1,860 Climbing Los Angeles Center
09:40AM 36.8214 -114.2406 31° Northeast 427 491 33,000 600 Climbing Los Angeles Center
09:41AM 36.9217 -114.1614 32° Northeast 427 491 33,000  Level Los Angeles Center
09:42AM 37.0225 -114.0833 32° Northeast 427 491 33,000  Level Los Angeles Center
09:43AM 37.1233 -114.0036 32° Northeast 428 493 33,000  Level Los Angeles Center
09:44AM 37.2294 -113.9228 31° Northeast 426 490 33,000  Level Salt Lake Center
09:45AM 37.3308 -113.8433 32° Northeast 429 494 33,000  Level Salt Lake Center
09:46AM 37.4317 -113.7619 33° Northeast 430 495 33,000  Level Salt Lake Center
09:47AM 37.5322 -113.6822 32° Northeast 428 493 33,000  Level Salt Lake Center
09:48AM 37.6331 -113.6011 32° Northeast 428 493 33,000  Level Salt Lake Center
09:49AM 37.7347 -113.5208 32° Northeast 429 494 33,000  Level Salt Lake Center
09:50AM 37.8347 -113.4397 33° Northeast 426 490 33,000  Level Salt Lake Center
09:51AM 37.9369 -113.3592 32° Northeast 430 495 33,000  Level Salt Lake Center
09:52AM 38.0394 -113.2758 33° Northeast 434 499 33,000  Level Salt Lake Center
09:53AM 38.1414 -113.1936 32° Northeast 433 498 33,000  Level Salt Lake Center
09:54AM 38.2436 -113.1100 33° Northeast 435 501 33,000  Level Salt Lake Center
09:55AM 38.3450 -113.0275 33° Northeast 432 497 33,000 -180 Level Salt Lake Center
09:56AM 38.4519 -112.9647 25° Northeast 424 488 32,700 -660 Descending Salt Lake Center
09:57AM 38.5603 -112.9081 22° Northeast 421 484 31,700 -840 Descending Salt Lake Center
09:58AM 38.6678 -112.8494 23° Northeast 420 483 31,000 -360 Descending Salt Lake Center
09:59AM 38.7931 -112.7828 23° Northeast 408 470 31,000 -240 Level Salt Lake Center
10:00AM 38.8992 -112.7247 23° Northeast 412 474 30,600 -720 Descending Salt Lake Center
10:01AM 39.0033 -112.6686 23° Northeast 407 468 29,600 -1,020 Descending Salt Lake Center
10:02AM 39.1069 -112.6128 23° Northeast 404 465 28,600 -1,020 Descending Salt Lake Center
10:03AM 39.2086 -112.5575 23° Northeast 398 458 27,600 -960 Descending Salt Lake Center
10:04AM 39.2989 -112.5078 23° Northeast 391 450 26,700 -1,140 Descending Salt Lake Center
10:05AM 39.4164 -112.4417 23° Northeast 386 444 25,400 -1,440 Descending Salt Lake Center
10:06AM 39.5092 -112.3875 24° Northeast 371 427 23,800 -1,680 Descending Salt Lake Center
10:07AM 39.6003 -112.3350 24° Northeast 360 414 22,000 -1,740 Descending Salt Lake Center
10:08AM 39.6892 -112.2853 23° Northeast 352 405 20,300 -1,680 Descending Salt Lake Center
10:10AM 39.8569 -112.1856 25° Northeast 333 383 17,000 -1,620 Descending Salt Lake Center
10:11AM 39.9378 -112.1383 24° Northeast 321 369 15,400 -1,680 Descending Salt Lake Center
10:12AM 40.0175 -112.1158 12° North 319 367 13,900 -2,040 Descending Salt Lake Center
10:13AM 40.0997 -112.0856 16° North 335 386 11,900 -1,860 Descending Salt Lake Center
10:13AM 40.1114 -112.0722 41° Northeast 333 383 11,700 -1,800 Descending Salt Lake Center
10:14AM 40.1861 -112.0536 11° North 324 373 10,100 -1,680 Descending Salt Lake Center
10:14AM 40.1972 -112.0417 39° Northeast 323 372 10,000 -120 Descending Salt Lake Center
10:15AM 40.2703 -112.0225 11° North 319 367 10,000  Level Salt Lake Center
10:15AM 40.3003 -112.0053 24° Northeast 319 367 10,000  Level Salt Lake Center
10:16AM 40.3567 -111.9906 11° North 322 371 10,000 -300 Level Salt Lake Center
10:16AM 40.3833 -111.9739 25° Northeast 310 357 9,700 -1,020 Descending Salt Lake Center
10:17AM 40.4353 -111.9639 North 283 326 9,000 -720 Descending Salt Lake Center
10:17AM 40.4586 -111.9581 11° North 272 313 9,000 -600 Level Salt Lake Center
10:18AM 40.5053 -111.9686 350° North 238 274 8,400 -540 Descending Salt Lake Center
10:18AM 40.5236 -111.9661 North 234 269 8,500 -300 Climbing Salt Lake Center
10:19AM 40.5878 -111.9736 355° North 230 265 8,000 -840 Descending Salt Lake Center
10:20AM 40.6353 -111.9839 351° North 216 249 7,000 -1,200 Descending Salt Lake Center
10:20AM 40.6458 -111.9803 15° North 213 245 6,800 -1,020 Descending Salt Lake Center
10:21AM 40.6878 -111.9886 351° North 192 221 6,000 -1,020 Descending Salt Lake Center
10:21AM 40.6969 -111.9861 12° North 185 213 5,800 -900 Descending Salt Lake Center
10:22AM 40.7292 -111.9914 353° North 151 174 5,100 -840 Descending Salt Lake Center
10:22AM 40.7364 -111.9908 North 148 170 5,000 -720 Descending Salt Lake Center
10:23AM 40.7667 -111.9958 353° North 138 159 4,400 -720 Descending Salt Lake Center
10:23AM 40.7739 -111.9950 North 136 157 4,300 -420 Descending Salt Lake Center
10:25AM 40.7833 -111.9667 North  Level FlightAware Approximate
10:32AM 40.7884 -111.9778 North  Level Estimated